Current Version              Previous Version:    01  02  03  04  05  06  07  08  09  10  11  12  13  14  15  16  17  18  19  20  21  22  23  24  25  26  27  28  29  30  
   31  32  33  34  35  36  37  38  39  40  41  42  43  44  45  46  47  48  49  50  51  52  53  54  55  56  57  58  59  60  

[Printable]
266
ASUS44 KLUB 290101
RWRTX
WEST TEXAS WEATHER ROUNDUP
NATIONAL WEATHER SERVICE LUBBOCK TX
700 PM CST FRI NOV 28 2014

NOTE: "FAIR" INDICATES FEW OR NO CLOUDS BELOW 12,000 FEET WITH NO
SIGNIFICANT WEATHER AND/OR OBSTRUCTIONS TO VISIBILITY.

TXZ004-006>008-010-012-014-016-OKZ002-290200-
TEXAS PANHANDLE/OKLAHOMA PANHANDLE

CITY           SKY/WX    TMP DP  RH WIND       PRES   REMARKS
AMARILLO       PTCLDY    67  14  13 SW21G26   29.89R
BORGER         PTCLDY    74  15  10 SW22G30   29.82S
CANADIAN       CLEAR     63  29  27 SW7       29.80R
DALHART        MOCLDY    58  14  17 SW14      29.87S
DUMAS            N/A     60  14  16 SW13      29.86S
GUYMON         CLOUDY    57  14  18 SW8       29.79S
HEREFORD       MOCLDY    65  18  16 S14       29.93S
$$

TXZ026-029-035-045-048-290200-
SOUTHERN PANHANDLE/SOUTH PLAINS/ROLLING PLAINS

CITY           SKY/WX    TMP DP  RH WIND       PRES   REMARKS
CHILDRESS      CLEAR     67  30  25 S14       29.87S
LUBBOCK        PTCLDY    62  26  25 SW12      29.97R
$$

TXZ052-054-060>062-072-078-127-140-154-169-290200-
PERMIAN BASIN/CONCHO VALLEY/BIG COUNTRY/EDWARDS PLATEAU

CITY           SKY/WX    TMP DP  RH WIND       PRES   REMARKS
ABILENE        PTCLDY    64  38  38 S15       30.00F
JUNCTION       CLEAR     59  41  51 SE3       30.10R
MIDLAND        CLEAR     62  33  33 S10       30.04R
ODESSA         PTCLDY    61  19  19 S9        30.04R
SAN ANGELO     CLEAR     62  38  40 S13       30.05R
WINK           CLEAR     60  21  22 S8        30.01R
$$

TXZ055-058-074-075-080-082-290200-
FAR WEST/SOUTHWEST MOUNTAINS/TRANS PECOS

CITY           SKY/WX    TMP DP  RH WIND       PRES   REMARKS
ALPINE         PTCLDY    56  18  22 SW10      30.19S
DRYDEN           N/A     56  38  50 E6        30.08R
EL PASO        CLEAR     59  21  23 SE7       30.08S
FORT STOCKTON  PTCLDY    60  21  22 SW12      30.05R
MARFA          PTCLDY    46  14  27 SW5       30.18R
$$

TXZ014-016-019-021>030-083-290200
TEXAS TECH WEST TEXAS MESONET/TEXAS PANHANDLE/NORTHERN SOUTH PLAINS

CITY           SKY/WX    TMP DP  RH WIND       PRES   REMARKS
ABERNATHY 5ENE   N/A     56  25  29 SW13      29.97S
AMARILLO 9NNE    N/A     68  19  15 S16       29.86F
AMARILLO 7SSE    N/A     63  17  16 SW10      29.90S
AMHERST 1NE      N/A     63  18  17 S12       29.97S
BOOTLEG 11WNW    N/A     59  21  22 SW15      29.98S
CANADIAN 6E      N/A     65  29  26 SE13      29.79S
CAPROCK CYN SP   N/A     68  25  19 SW16      29.88F
CHILDRESS 2NNE   N/A     67  30  25 S17       29.85F
CLARENDON 2WSW   N/A     61  19  19 S12       29.86S
DIMMITT 2NE      N/A     62  17  17 SW13      29.95S
FLOYDADA 2NNE    N/A     62  25  24 SW15      29.95S
FRIONA 2NE       N/A     57  15  19 S14       29.96S
GOODLETT 3W      N/A     66  32  27 S18       29.84F
HART 3N          N/A     54  18  24 S9        29.95S
HEREFORD 2NW     N/A     62  16  16 SW13      29.93S
MCLEAN 1E        N/A     62  23  22 S10       29.82F
MEMPHIS 1NE      N/A     68  28  22 S10       29.84S
MULESHOE 2SSW    N/A     54  15  21 SW12      29.97S
OLTON 6S         N/A     53  21  28 S13       29.97R
PALO DURO SP     N/A     67  15  13 SW15      29.90S
PAMPA 2E         N/A     67  15  13 SW13      29.84R
PLAINVIEW 1S     N/A     62  23  22 SW14      29.94S
SILVERTON 7ESE   N/A     63  27  25 SW15      29.91S
TULIA 2ENE       N/A     61  21  21 SW14      29.93S
TURKEY 2WSW      N/A     65  27  23 S14       29.87S
UMBARGER 3NNE    N/A     56  17  21 S12       29.92S
$$

TXZ033>036-039>041-045>048-290200
TEXAS TECH WEST TEXAS MESONET/SOUTH PLAINS

CITY           SKY/WX    TMP DP  RH WIND       PRES   REMARKS
AIKEN 3WSW       N/A     52  27  38 S9        29.96S
ANDREWS 2NE      N/A     61  21  21 S9        30.03R
ANTON 6SSW       N/A     55  25  31 S12       29.98R
BROWNFIELD 2S    N/A     53  26  35 SW8       30.00S
DENVR CTY 7WNW   N/A     52  23  32 S9        30.01S
GAIL 2ESE        N/A     55  28  35 S7        29.99S
LAMESA 2SE       N/A     53  29  38 S12       30.01S
LEVELLAND 4S     N/A     58  23  25 S10       29.99S
LUBBOCK 3WNW     N/A     63  25  23 SW10      29.98R
MORTON 1ENE      N/A     59  21  23 SW10      29.99S
ODONNELL 1N      N/A     58  25  28 S9        30.00S
PLAINS 3N        N/A     56  24  29 S9        30.01S
RALLS 1SE        N/A     55  26  33 SW9       29.98R
REESE CENTER     N/A     56  24  28 S10       29.98R
SEAGRAVES 1SW    N/A     54  24  30 S9        30.01R
SEMINOLE 2NNE    N/A     59  23  25 S8        30.01S
SLATON 2NE       N/A     61  26  26 SW16      29.97S
SNYDER 3E        N/A     61  32  33 S14       29.99R
SUNDOWN 8SW      N/A     51  24  35 SW12      30.00S
TAHOKA 3NNE      N/A     60  24  25 SW12      29.99S
WOLFFORTH 6SSW   N/A     55  26  33 SW8       29.99S
$$

TXZ031-032-036>038-042>044-290200-
TEXAS TECH WEST TEXAS MESONET/ROLLING PLAINS

CITY           SKY/WX    TMP DP  RH WIND       PRES   REMARKS
ASPERMONT 3NE    N/A     62  35  36 S9        29.95R
FLUVANNA 3WNW    N/A     61  31  32 S15       29.99R
GRAHAM 5SSW      N/A     62  24  23 SW7       29.99S
GUTHRIE 10WSW    N/A     65  30  27 S15       29.92S
HASKELL 1NW      N/A     62  38  40 S13       29.94S
JAYTON 1SSE      N/A     62  31  32 S9        29.95S
KNOX CITY 3NW    N/A     57  35  44 S10       29.93S
LK A HENRY 1NW   N/A     62  29  29 SW8       29.96F
NORTHFIELD 1S    N/A     65  31  27 S13       29.87S
ODELL 4ENE       N/A     62  39  43 S14       29.88S
PADUCAH 10SW     N/A     57  33  40 S12       29.90S
POST 1NE         N/A     61  26  26 S7        29.97S
RRING SPRGS 3N   N/A     60  29  30 S10       29.92S
SEYMOUR 3NW      N/A     61  43  50 S9        29.92R
SPUR 1W          N/A     58  28  32 SW8       29.94S
WEINERT 2NNE     N/A     62  40  44 S12       29.93S
WHITE RVR 6NE    N/A     62  27  26 SW13      29.95R
$$

TXZ052-054-060>062-072-078-127-140-154-169-290200-
TEXAS TECH WEST TEXAS MESONET/PERMIAN BASIN/
CONCHO VALLEY/BIG COUNTRY/EDWARDS PLATEAU

CITY           SKY/WX    TMP DP  RH WIND       PRES   REMARKS
COYANOSA 2N      N/A     61  27  27 E3        30.03S
JUNCTION 1SSW    N/A     59  42  52 S6        30.11R
MERTZON 3NNE     N/A     59  38  45 S13       30.06S
SAN ANGELO 7NW   N/A     60  36  40 S7        30.05R
STRLNG CT 4WSW   N/A     62  35  37 S13       30.04S
ST LAWRNCE 5SW   N/A     56  31  38 S9        30.04S
SWEETWATR 11SW   N/A     60  37  42 S15       30.02S
WALL 1E          N/A     61  38  42 S9        30.05S
$$

TXZ055-058-074-075-080-082-290200-
TEXAS TECH WEST TEXAS MESONET/FAR WEST/SOUTHWEST MOUNTAINS/TRANS PECOS

CITY           SKY/WX    TMP DP  RH WIND       PRES   REMARKS
PRSMN GAP BBNP   N/A     64  29  26 S1        30.09R
GUADLPE MTN NP   N/A     60   1   9 SW3       30.13R
$$